Year,Month,Day,Hour,Minute,Value (Times are PST for temperature in C)
2017,09,22,00,00,9.20
2017,09,22,00,01,9.20
2017,09,22,00,02,9.20
2017,09,22,00,03,9.10
2017,09,22,00,04,9.10
2017,09,22,00,05,9.10
2017,09,22,00,06,9.10
2017,09,22,00,07,9.10
2017,09,22,00,08,9.10
2017,09,22,00,09,9.00
2017,09,22,00,10,9.00
2017,09,22,00,11,9.00
2017,09,22,00,12,8.90
2017,09,22,00,13,8.90
2017,09,22,00,14,8.90
2017,09,22,00,15,8.90
2017,09,22,00,16,8.90
2017,09,22,00,17,8.80
2017,09,22,00,18,8.80
2017,09,22,00,19,8.80
2017,09,22,00,20,8.80
2017,09,22,00,21,8.80
2017,09,22,00,22,8.80
2017,09,22,00,23,8.80
2017,09,22,00,24,8.80
2017,09,22,00,25,8.80
2017,09,22,00,26,8.70
2017,09,22,00,27,8.70
2017,09,22,00,28,8.70
2017,09,22,00,29,8.70
2017,09,22,00,30,8.70
2017,09,22,00,31,8.70
2017,09,22,00,32,8.70
2017,09,22,00,33,8.60
2017,09,22,00,34,8.60
2017,09,22,00,35,8.60
2017,09,22,00,36,8.60
2017,09,22,00,37,8.60
2017,09,22,00,38,8.60
2017,09,22,00,39,8.60
2017,09,22,00,40,8.60
2017,09,22,00,41,8.50
2017,09,22,00,42,8.50
2017,09,22,00,43,8.50
2017,09,22,00,44,8.50
2017,09,22,00,45,8.50
2017,09,22,00,46,8.40
2017,09,22,00,47,8.40
2017,09,22,00,48,8.40
2017,09,22,00,49,8.40
2017,09,22,00,50,8.40
2017,09,22,00,51,8.40
2017,09,22,00,52,8.40
2017,09,22,00,53,8.40
2017,09,22,00,54,8.30
2017,09,22,00,55,8.30
2017,09,22,00,56,8.30
2017,09,22,00,57,8.30
2017,09,22,00,58,8.30
2017,09,22,00,59,8.30
2017,09,22,01,00,8.30
2017,09,22,01,01,8.20
2017,09,22,01,02,8.20
2017,09,22,01,03,8.20
2017,09,22,01,04,8.20
2017,09,22,01,05,8.20
2017,09,22,01,06,8.20
2017,09,22,01,07,8.20
2017,09,22,01,08,8.20
2017,09,22,01,09,8.20
2017,09,22,01,10,8.10
2017,09,22,01,11,8.10
2017,09,22,01,12,8.10
2017,09,22,01,13,8.10
2017,09,22,01,14,8.10
2017,09,22,01,15,8.10
2017,09,22,01,16,8.10
2017,09,22,01,17,8.00
2017,09,22,01,18,8.00
2017,09,22,01,19,8.00
2017,09,22,01,20,8.00
2017,09,22,01,21,8.00
2017,09,22,01,22,7.90
2017,09,22,01,23,7.90
2017,09,22,01,24,7.90
2017,09,22,01,25,7.90
2017,09,22,01,26,7.90
2017,09,22,01,27,7.90
2017,09,22,01,28,7.90
2017,09,22,01,29,7.90
2017,09,22,01,30,7.90
2017,09,22,01,31,7.90
2017,09,22,01,32,7.80
2017,09,22,01,33,7.80
2017,09,22,01,34,7.80
2017,09,22,01,35,7.80
2017,09,22,01,36,7.80
2017,09,22,01,37,7.80
2017,09,22,01,38,7.70
2017,09,22,01,39,7.70
2017,09,22,01,40,7.70
2017,09,22,01,41,7.70
2017,09,22,01,42,7.70
2017,09,22,01,43,7.70
2017,09,22,01,44,7.60
2017,09,22,01,45,7.60
2017,09,22,01,46,7.60
2017,09,22,01,47,7.60
2017,09,22,01,48,7.60
2017,09,22,01,49,7.60
2017,09,22,01,50,7.60
2017,09,22,01,51,7.50
2017,09,22,01,52,7.50
2017,09,22,01,53,7.50
2017,09,22,01,54,7.50
2017,09,22,01,55,7.40
2017,09,22,01,56,7.40
2017,09,22,01,57,7.40
2017,09,22,01,58,7.40
2017,09,22,01,59,7.40
2017,09,22,02,00,7.40
2017,09,22,02,01,7.40
2017,09,22,02,02,7.30
2017,09,22,02,03,7.30
2017,09,22,02,04,7.30
2017,09,22,02,05,7.30
2017,09,22,02,06,7.30
2017,09,22,02,07,7.20
2017,09,22,02,08,7.20
2017,09,22,02,09,7.20
2017,09,22,02,10,7.20
2017,09,22,02,11,7.20
2017,09,22,02,12,7.20
2017,09,22,02,13,7.20
2017,09,22,02,14,7.20
2017,09,22,02,15,7.20
2017,09,22,02,16,7.10
2017,09,22,02,17,7.10
2017,09,22,02,18,7.10
2017,09,22,02,19,7.10
2017,09,22,02,20,7.10
2017,09,22,02,21,7.10
2017,09,22,02,22,7.10
2017,09,22,02,23,7.00
2017,09,22,02,24,7.00
2017,09,22,02,25,7.00
2017,09,22,02,26,7.00
2017,09,22,02,27,7.00
2017,09,22,02,28,7.00
2017,09,22,02,29,6.90
2017,09,22,02,30,6.90
2017,09,22,02,31,6.90
2017,09,22,02,32,6.90
2017,09,22,02,33,6.90
2017,09,22,02,34,6.90
2017,09,22,02,35,6.90
2017,09,22,02,36,6.80
2017,09,22,02,37,6.90
2017,09,22,02,38,6.90
2017,09,22,02,39,6.90
2017,09,22,02,40,6.90
2017,09,22,02,41,6.90
2017,09,22,02,42,6.80
2017,09,22,02,43,6.80
2017,09,22,02,44,6.80
2017,09,22,02,45,6.80
2017,09,22,02,46,6.80
2017,09,22,02,47,6.80
2017,09,22,02,48,6.80
2017,09,22,02,49,6.80
2017,09,22,02,50,6.70
2017,09,22,02,51,6.70
2017,09,22,02,52,6.70
2017,09,22,02,53,6.70
2017,09,22,02,54,6.70
2017,09,22,02,55,6.70
2017,09,22,02,56,6.70
2017,09,22,02,57,6.70
2017,09,22,02,58,6.70
2017,09,22,02,59,6.60
2017,09,22,03,00,6.60
2017,09,22,03,01,6.60
2017,09,22,03,02,6.60
2017,09,22,03,03,6.60
2017,09,22,03,04,6.60
2017,09,22,03,05,6.60
2017,09,22,03,06,6.60
2017,09,22,03,07,6.60
2017,09,22,03,08,6.60
2017,09,22,03,09,6.60
2017,09,22,03,10,6.60
2017,09,22,03,11,6.60
2017,09,22,03,12,6.60
2017,09,22,03,13,6.60
2017,09,22,03,14,6.60
2017,09,22,03,15,6.60
2017,09,22,03,16,6.50
2017,09,22,03,17,6.50
2017,09,22,03,18,6.50
2017,09,22,03,19,6.50
2017,09,22,03,20,6.50
2017,09,22,03,21,6.40
2017,09,22,03,22,6.40
2017,09,22,03,23,6.40
2017,09,22,03,24,6.40
2017,09,22,03,25,6.40
2017,09,22,03,26,6.40
2017,09,22,03,27,6.30
2017,09,22,03,28,6.30
2017,09,22,03,29,6.30
2017,09,22,03,30,6.30
2017,09,22,03,31,6.30
2017,09,22,03,32,6.20
2017,09,22,03,33,6.20
2017,09,22,03,34,6.20
2017,09,22,03,35,6.20
2017,09,22,03,36,6.10
2017,09,22,03,37,6.10
2017,09,22,03,38,6.10
2017,09,22,03,39,6.10
2017,09,22,03,40,6.10
2017,09,22,03,41,6.10
2017,09,22,03,42,6.10
2017,09,22,03,43,6.10
2017,09,22,03,44,6.10
2017,09,22,03,45,6.10
2017,09,22,03,46,6.10
2017,09,22,03,47,6.10
2017,09,22,03,48,6.10
2017,09,22,03,49,6.10
2017,09,22,03,50,6.10
2017,09,22,03,51,6.10
2017,09,22,03,52,6.10
2017,09,22,03,53,6.10
2017,09,22,03,54,6.10
2017,09,22,03,55,6.10
2017,09,22,03,56,6.00
2017,09,22,03,57,6.00
2017,09,22,03,58,5.90
2017,09,22,03,59,5.90
2017,09,22,04,00,5.90
2017,09,22,04,01,5.90
2017,09,22,04,02,5.90
2017,09,22,04,03,5.90
2017,09,22,04,04,5.90
2017,09,22,04,05,5.90
2017,09,22,04,06,5.90
2017,09,22,04,07,5.90
2017,09,22,04,08,5.90
2017,09,22,04,09,5.90
2017,09,22,04,10,5.90
2017,09,22,04,11,5.90
2017,09,22,04,12,5.80
2017,09,22,04,13,5.80
2017,09,22,04,14,5.80
2017,09,22,04,15,5.80
2017,09,22,04,16,5.80
2017,09,22,04,17,5.80
2017,09,22,04,18,5.80
2017,09,22,04,19,5.80
2017,09,22,04,20,5.80
2017,09,22,04,21,5.80
2017,09,22,04,22,5.80
2017,09,22,04,23,5.80
2017,09,22,04,24,5.80
2017,09,22,04,25,5.80
2017,09,22,04,26,5.80
2017,09,22,04,27,5.80
2017,09,22,04,28,5.80
2017,09,22,04,29,5.70
2017,09,22,04,30,5.70
2017,09,22,04,31,5.70
2017,09,22,04,32,5.70
2017,09,22,04,33,5.70
2017,09,22,04,34,5.70
2017,09,22,04,35,5.70
2017,09,22,04,36,5.70
2017,09,22,04,37,5.60
2017,09,22,04,38,5.60
2017,09,22,04,39,5.60
2017,09,22,04,40,5.60
2017,09,22,04,41,5.60
2017,09,22,04,42,5.60
2017,09,22,04,43,5.60
2017,09,22,04,44,5.60
2017,09,22,04,45,5.60
2017,09,22,04,46,5.50
2017,09,22,04,47,5.50
2017,09,22,04,48,5.50
2017,09,22,04,49,5.50
2017,09,22,04,50,5.50
2017,09,22,04,51,5.50
2017,09,22,04,52,5.50
2017,09,22,04,53,5.50
2017,09,22,04,54,5.40
2017,09,22,04,55,5.40
2017,09,22,04,56,5.40
2017,09,22,04,57,5.40
2017,09,22,04,58,5.40
2017,09,22,04,59,5.40
2017,09,22,05,00,5.40
2017,09,22,05,01,5.30
2017,09,22,05,02,5.30
2017,09,22,05,03,5.30
2017,09,22,05,04,5.30
2017,09,22,05,05,5.30
2017,09,22,05,06,5.30
2017,09,22,05,07,5.30
2017,09,22,05,08,5.30
2017,09,22,05,09,5.30
2017,09,22,05,10,5.30
2017,09,22,05,11,5.30
2017,09,22,05,12,5.30
2017,09,22,06,37,4.80
2017,09,22,06,38,4.80
2017,09,22,06,39,4.80
2017,09,22,06,40,4.80
2017,09,22,06,41,4.80
2017,09,22,06,42,4.80
2017,09,22,06,43,4.70
2017,09,22,06,44,4.70
2017,09,22,06,45,4.70
2017,09,22,06,46,4.70
2017,09,22,06,47,4.70
2017,09,22,06,48,4.70
2017,09,22,06,49,4.70
2017,09,22,06,50,4.60
2017,09,22,06,51,4.60
2017,09,22,06,52,4.60
2017,09,22,06,53,4.60
2017,09,22,06,54,4.60
2017,09,22,06,55,4.60
2017,09,22,06,56,4.60
2017,09,22,06,57,4.50
2017,09,22,06,58,4.50
2017,09,22,06,59,4.50
2017,09,22,07,00,4.50
2017,09,22,07,01,4.50
2017,09,22,07,02,4.50
2017,09,22,07,03,4.50
2017,09,22,07,04,4.50
2017,09,22,07,05,4.50
2017,09,22,07,06,4.40
2017,09,22,07,07,4.40
2017,09,22,07,08,4.40
2017,09,22,07,09,4.40
2017,09,22,07,10,4.40
2017,09,22,07,11,4.40
2017,09,22,07,12,4.40
2017,09,22,07,13,4.40
2017,09,22,07,14,4.40
2017,09,22,07,15,4.40
2017,09,22,07,16,4.40
2017,09,22,07,17,4.40
2017,09,22,07,18,4.40
2017,09,22,07,19,4.40
2017,09,22,07,20,4.40
2017,09,22,07,21,4.40
2017,09,22,07,22,4.40
2017,09,22,07,23,4.40
2017,09,22,07,24,4.40
2017,09,22,07,25,4.40
2017,09,22,07,26,4.40
2017,09,22,07,27,4.40
2017,09,22,07,28,4.30
2017,09,22,07,29,4.30
2017,09,22,07,30,4.30
2017,09,22,07,31,4.30
2017,09,22,07,32,4.30
2017,09,22,07,33,4.30
2017,09,22,07,34,4.30
2017,09,22,07,35,4.30
2017,09,22,07,36,4.30
2017,09,22,07,37,4.30
2017,09,22,07,38,4.40
2017,09,22,07,39,4.30
2017,09,22,07,40,4.30
2017,09,22,07,41,4.30
2017,09,22,07,42,4.30
2017,09,22,07,43,4.30
2017,09,22,07,44,4.30
2017,09,22,07,45,4.30
2017,09,22,07,46,4.30
2017,09,22,07,47,4.30
2017,09,22,07,48,4.30
2017,09,22,07,49,4.30
2017,09,22,07,50,4.30
2017,09,22,07,51,4.30
2017,09,22,07,52,4.40
2017,09,22,07,53,4.40
2017,09,22,07,54,4.40
2017,09,22,07,55,4.40
2017,09,22,07,56,4.40
2017,09,22,07,57,4.40
2017,09,22,07,58,4.40
2017,09,22,07,59,4.40
2017,09,22,08,00,4.40
2017,09,22,08,01,4.40
2017,09,22,08,02,4.50
2017,09,22,08,03,4.50
2017,09,22,08,04,4.50
2017,09,22,08,05,4.60
2017,09,22,08,06,4.60
2017,09,22,08,07,4.60
2017,09,22,08,08,4.70
2017,09,22,08,09,4.70
2017,09,22,08,10,4.70
2017,09,22,08,11,4.80
2017,09,22,08,12,4.80
2017,09,22,08,13,4.80
2017,09,22,08,14,4.80
2017,09,22,08,15,4.80
2017,09,22,08,16,4.80
2017,09,22,08,17,4.80
2017,09,22,08,18,4.80
2017,09,22,08,19,5.10
2017,09,22,08,20,5.10
2017,09,22,08,21,5.20
2017,09,22,08,22,5.20
2017,09,22,08,23,5.20
2017,09,22,08,24,5.30
2017,09,22,08,25,5.30
2017,09,22,08,26,5.30
2017,09,22,08,27,5.40
2017,09,22,08,28,5.40
2017,09,22,08,29,5.50
2017,09,22,08,30,5.50
2017,09,22,08,31,5.60
2017,09,22,08,32,5.60
2017,09,22,08,33,5.60
2017,09,22,08,34,5.70
2017,09,22,08,35,5.70
2017,09,22,08,36,5.70
2017,09,22,08,37,5.70
2017,09,22,08,38,5.70
2017,09,22,08,39,5.80
2017,09,22,08,40,5.80
2017,09,22,08,41,5.80
2017,09,22,08,42,5.90
2017,09,22,08,43,5.90
2017,09,22,08,44,5.90
2017,09,22,08,45,6.00
2017,09,22,08,46,6.00
2017,09,22,08,47,6.10
2017,09,22,08,48,6.20
2017,09,22,08,49,6.20
2017,09,22,08,50,6.30
2017,09,22,08,51,6.30
2017,09,22,08,52,6.40
2017,09,22,08,53,6.50
2017,09,22,08,54,6.60
2017,09,22,08,55,6.60
2017,09,22,08,56,6.70
2017,09,22,08,57,6.80
2017,09,22,08,58,6.80
2017,09,22,08,59,6.90
2017,09,22,09,00,7.00
2017,09,22,09,01,7.10
2017,09,22,09,02,7.20
2017,09,22,09,03,7.30
2017,09,22,09,04,7.40
2017,09,22,09,05,7.50
2017,09,22,09,06,7.60
2017,09,22,09,07,7.70
2017,09,22,09,08,7.80
2017,09,22,09,09,7.80
2017,09,22,09,10,7.90
2017,09,22,09,11,8.00
2017,09,22,09,12,8.10
2017,09,22,09,13,8.20
2017,09,22,09,14,8.20
2017,09,22,09,15,8.30
2017,09,22,09,16,8.40
2017,09,22,09,17,8.50
2017,09,22,09,18,8.60
2017,09,22,09,19,8.60
2017,09,22,09,20,8.70
2017,09,22,09,21,8.70
2017,09,22,09,22,8.80
2017,09,22,09,23,8.80
2017,09,22,09,24,8.90
2017,09,22,09,25,8.90
2017,09,22,09,26,9.00
2017,09,22,09,27,9.00
2017,09,22,09,28,9.00
2017,09,22,09,29,9.10
2017,09,22,09,30,9.10
2017,09,22,09,31,9.10
2017,09,22,09,32,9.20
2017,09,22,09,33,9.20
2017,09,22,09,34,9.30
2017,09,22,09,35,9.30
2017,09,22,09,36,9.40
2017,09,22,09,37,9.40
2017,09,22,09,38,9.40
2017,09,22,09,39,9.50
2017,09,22,09,40,9.60
2017,09,22,09,41,9.70
2017,09,22,09,42,9.70
2017,09,22,09,43,9.80
2017,09,22,09,44,9.80
2017,09,22,09,45,9.80
2017,09,22,09,46,9.90
2017,09,22,09,47,9.90
2017,09,22,09,48,10.00
2017,09,22,09,49,10.10
2017,09,22,09,50,10.20
2017,09,22,09,51,10.30
2017,09,22,09,52,10.30
2017,09,22,09,53,10.40
2017,09,22,09,54,10.40
2017,09,22,09,55,10.50
2017,09,22,09,56,10.60
2017,09,22,09,57,10.70
2017,09,22,09,58,10.80
2017,09,22,09,59,10.90
2017,09,22,10,00,10.90
2017,09,22,10,01,11.00
2017,09,22,10,02,11.10
2017,09,22,10,03,11.10
2017,09,22,10,04,11.10
2017,09,22,10,05,11.20
2017,09,22,10,06,11.20
2017,09,22,10,07,11.20
2017,09,22,10,08,11.20
2017,09,22,10,09,11.30
2017,09,22,10,10,11.40
2017,09,22,10,11,11.40
2017,09,22,10,12,11.60
2017,09,22,10,13,11.70
2017,09,22,10,14,11.80
2017,09,22,10,15,11.80
2017,09,22,10,16,11.80
2017,09,22,10,17,11.90
2017,09,22,10,18,11.90
2017,09,22,10,19,12.00
2017,09,22,10,20,12.00
2017,09,22,10,21,12.10
2017,09,22,10,22,12.10
2017,09,22,10,23,12.20
2017,09,22,10,24,12.40
2017,09,22,10,25,12.40
2017,09,22,10,26,12.50
2017,09,22,10,27,12.60
2017,09,22,10,28,12.70
2017,09,22,10,29,12.80
2017,09,22,10,30,12.90
2017,09,22,10,31,13.10
2017,09,22,10,32,13.10
2017,09,22,10,33,13.20
2017,09,22,10,34,13.30
2017,09,22,10,35,13.40
2017,09,22,10,36,13.50
2017,09,22,10,37,13.60
2017,09,22,10,38,13.60
2017,09,22,10,39,13.60
2017,09,22,10,40,13.60
2017,09,22,10,41,13.70
2017,09,22,10,42,13.70
2017,09,22,10,43,13.70
2017,09,22,10,44,13.80
2017,09,22,10,45,13.80
2017,09,22,10,46,13.80
2017,09,22,10,47,13.90
2017,09,22,10,48,13.90
2017,09,22,10,49,14.00
2017,09,22,10,50,14.10
2017,09,22,10,51,14.10
2017,09,22,10,52,14.10
2017,09,22,10,53,14.10
2017,09,22,10,54,14.10
2017,09,22,10,55,14.10
2017,09,22,10,56,14.20
2017,09,22,10,57,14.10
2017,09,22,10,58,14.10
2017,09,22,10,59,14.00
2017,09,22,11,00,14.00
2017,09,22,11,01,13.90
2017,09,22,11,02,13.90
2017,09,22,11,03,13.80
2017,09,22,11,04,13.80
2017,09,22,11,05,13.80
2017,09,22,11,06,13.70
2017,09,22,11,07,13.70
2017,09,22,11,08,13.70
2017,09,22,11,09,13.70
2017,09,22,11,10,13.80
2017,09,22,11,11,13.90
2017,09,22,11,12,14.00
2017,09,22,11,13,14.10
2017,09,22,11,14,14.10
2017,09,22,11,15,14.20
2017,09,22,11,16,14.30
2017,09,22,11,17,14.30
2017,09,22,11,18,14.30
2017,09,22,11,19,14.40
2017,09,22,11,20,14.40
2017,09,22,11,21,14.40
2017,09,22,11,22,14.50
2017,09,22,11,23,14.50
2017,09,22,11,24,14.60
2017,09,22,11,25,14.70
2017,09,22,11,26,14.80
2017,09,22,11,27,14.80
2017,09,22,11,28,14.90
2017,09,22,11,29,14.90
2017,09,22,11,30,15.00
2017,09,22,11,31,15.10
2017,09,22,11,32,15.20
2017,09,22,11,33,15.30
2017,09,22,11,34,15.40
2017,09,22,11,35,15.50
2017,09,22,11,36,15.50
2017,09,22,11,37,15.50
2017,09,22,11,38,15.50
2017,09,22,11,39,15.50
2017,09,22,11,40,15.40
2017,09,22,11,41,15.40
2017,09,22,11,42,15.40
2017,09,22,11,43,15.50
2017,09,22,11,44,15.50
2017,09,22,11,45,15.60
2017,09,22,11,46,15.60
2017,09,22,11,47,15.70
2017,09,22,11,48,15.80
2017,09,22,11,49,15.80
2017,09,22,11,50,15.80
2017,09,22,11,51,15.80
2017,09,22,11,52,15.90
2017,09,22,11,53,15.90
2017,09,22,11,54,15.90
2017,09,22,11,55,15.90
2017,09,22,11,56,15.90
2017,09,22,11,57,15.90
2017,09,22,11,58,15.90
2017,09,22,11,59,16.00
2017,09,22,12,00,16.00
2017,09,22,12,01,16.00
2017,09,22,12,02,16.00
2017,09,22,12,03,16.00
2017,09,22,12,04,16.10
2017,09,22,12,05,16.20
2017,09,22,12,06,16.30
2017,09,22,12,07,16.30
2017,09,22,12,08,16.30
2017,09,22,12,09,16.30
2017,09,22,12,10,16.40
2017,09,22,12,11,16.40
2017,09,22,12,12,16.50
2017,09,22,12,13,16.60
2017,09,22,12,14,16.60
2017,09,22,12,15,16.60
2017,09,22,12,16,16.70
2017,09,22,12,17,16.80
2017,09,22,12,18,16.80
2017,09,22,12,19,16.90
2017,09,22,12,20,17.00
2017,09,22,12,21,17.10
2017,09,22,12,22,17.20
2017,09,22,12,23,17.30
2017,09,22,12,24,17.40
2017,09,22,12,25,17.50
2017,09,22,12,26,17.60
2017,09,22,12,27,17.70
2017,09,22,12,28,17.70
2017,09,22,12,29,17.70
2017,09,22,12,30,17.70
2017,09,22,12,31,17.80
2017,09,22,12,32,17.90
2017,09,22,12,33,18.00
2017,09,22,12,34,18.10
2017,09,22,12,35,18.30
2017,09,22,12,36,18.40
2017,09,22,12,37,18.50
2017,09,22,12,38,18.50
2017,09,22,12,39,18.60
2017,09,22,12,40,18.60
2017,09,22,12,41,18.60
2017,09,22,12,42,18.70
2017,09,22,12,43,18.70
2017,09,22,12,44,18.70
2017,09,22,12,45,18.70
2017,09,22,12,46,18.80
2017,09,22,12,47,18.80
2017,09,22,12,48,18.80
2017,09,22,12,49,18.80
2017,09,22,12,50,18.80
2017,09,22,12,51,18.90
2017,09,22,12,52,18.90
2017,09,22,12,53,18.90
2017,09,22,12,54,18.90
2017,09,22,12,55,18.90
2017,09,22,12,56,19.00
2017,09,22,12,57,19.00
2017,09,22,12,58,19.00
2017,09,22,12,59,18.90
2017,09,22,13,00,19.00
2017,09,22,13,01,19.00
2017,09,22,13,02,19.00
2017,09,22,13,03,19.00
2017,09,22,13,04,19.00
2017,09,22,13,05,19.10
2017,09,22,13,06,19.10
2017,09,22,13,07,19.20
2017,09,22,13,08,19.20
2017,09,22,13,09,19.30
2017,09,22,13,10,19.30
2017,09,22,13,11,19.40
2017,09,22,13,12,19.50
2017,09,22,13,13,19.50
2017,09,22,13,14,19.60
2017,09,22,13,15,19.70
2017,09,22,13,16,19.70
2017,09,22,13,17,19.80
2017,09,22,13,18,19.80
2017,09,22,13,19,19.90
2017,09,22,13,20,19.90
2017,09,22,13,21,19.90
2017,09,22,13,22,19.90
2017,09,22,13,23,20.00
2017,09,22,13,24,20.00
2017,09,22,13,25,20.10
2017,09,22,13,26,20.10
2017,09,22,13,27,20.20
2017,09,22,13,28,20.20
2017,09,22,13,29,20.20
2017,09,22,13,30,20.20
2017,09,22,13,31,20.20
2017,09,22,13,32,20.10
2017,09,22,13,33,20.10
2017,09,22,13,34,20.10
2017,09,22,13,35,20.10
2017,09,22,13,36,20.20
2017,09,22,13,37,20.30
2017,09,22,13,38,20.40
2017,09,22,13,39,20.50
2017,09,22,13,40,20.50
2017,09,22,13,41,20.60
2017,09,22,13,42,20.60
2017,09,22,13,43,20.60
2017,09,22,13,44,20.60
2017,09,22,13,45,20.60
2017,09,22,13,46,20.60
2017,09,22,13,47,20.60
2017,09,22,13,48,20.60
2017,09,22,13,49,20.60
2017,09,22,13,50,20.60
2017,09,22,13,51,20.60
2017,09,22,13,52,20.50
2017,09,22,13,53,20.50
2017,09,22,13,54,20.40
2017,09,22,13,55,20.30
2017,09,22,13,56,20.20
2017,09,22,13,57,20.20
2017,09,22,13,58,20.20
2017,09,22,13,59,20.20
2017,09,22,14,00,20.20
2017,09,22,14,01,20.20
2017,09,22,14,02,20.20
2017,09,22,14,03,20.20
2017,09,22,14,04,20.30
2017,09,22,14,05,20.30
2017,09,22,14,06,20.30
2017,09,22,14,07,20.20
2017,09,22,14,08,20.20
2017,09,22,14,09,20.20
2017,09,22,14,10,20.10
2017,09,22,14,11,20.00
2017,09,22,14,12,19.90
2017,09,22,14,13,19.90
2017,09,22,14,14,19.80
2017,09,22,14,15,19.80
2017,09,22,14,16,19.90
2017,09,22,14,17,19.90
2017,09,22,14,18,19.90
2017,09,22,14,19,19.90
2017,09,22,14,20,19.90
2017,09,22,14,21,19.90
2017,09,22,14,22,19.80
2017,09,22,14,23,19.90
2017,09,22,14,24,19.90
2017,09,22,14,25,20.00
2017,09,22,14,26,20.00
2017,09,22,14,27,19.90
2017,09,22,14,28,19.90
2017,09,22,14,29,19.90
2017,09,22,14,30,19.90
2017,09,22,14,31,20.00
2017,09,22,14,32,20.10
2017,09,22,14,33,20.20
2017,09,22,14,34,20.30
2017,09,22,14,35,20.40
2017,09,22,14,36,20.50
2017,09,22,14,37,20.50
2017,09,22,14,38,20.40
2017,09,22,14,39,20.40
2017,09,22,14,40,20.40
2017,09,22,14,41,20.50
2017,09,22,14,42,20.50
2017,09,22,14,43,20.50
2017,09,22,14,44,20.60
2017,09,22,14,45,20.60
2017,09,22,14,46,20.70
2017,09,22,14,47,20.70
2017,09,22,14,48,20.80
2017,09,22,14,49,20.90
2017,09,22,14,50,20.90
2017,09,22,14,51,20.90
2017,09,22,14,52,20.90
2017,09,22,14,53,20.90
2017,09,22,14,54,20.90
2017,09,22,14,55,21.00
2017,09,22,14,56,21.00
2017,09,22,14,57,21.10
2017,09,22,14,58,21.10
2017,09,22,14,59,21.20
2017,09,22,15,00,21.20
2017,09,22,15,01,21.20
2017,09,22,15,02,21.30
2017,09,22,15,03,21.30
2017,09,22,15,04,21.40
2017,09,22,15,05,21.40
2017,09,22,15,06,21.50
2017,09,22,15,07,21.50
2017,09,22,15,08,21.50
2017,09,22,15,09,21.50
2017,09,22,15,10,21.50
2017,09,22,15,11,21.50
2017,09,22,15,12,21.50
2017,09,22,15,13,21.50
2017,09,22,15,14,21.50
2017,09,22,15,15,21.60
2017,09,22,15,16,21.60
2017,09,22,15,17,21.70
2017,09,22,15,18,21.70
2017,09,22,15,19,21.80
2017,09,22,15,20,21.80
2017,09,22,15,21,21.90
2017,09,22,15,22,21.90
2017,09,22,15,23,22.00
2017,09,22,15,24,22.00
2017,09,22,15,25,22.00
2017,09,22,15,26,21.90
2017,09,22,15,27,21.90
2017,09,22,15,28,21.80
2017,09,22,15,29,21.80
2017,09,22,15,30,21.80
2017,09,22,15,31,21.70
2017,09,22,15,32,21.70
2017,09,22,15,33,21.60
2017,09,22,15,34,21.50
2017,09,22,15,35,21.40
2017,09,22,15,36,21.40
2017,09,22,15,37,21.30
2017,09,22,15,38,21.30
2017,09,22,15,39,21.30
2017,09,22,15,40,21.30
2017,09,22,15,41,21.30
2017,09,22,15,42,21.20
2017,09,22,15,43,21.10
2017,09,22,15,44,21.10
2017,09,22,15,45,21.00
2017,09,22,15,46,21.00
2017,09,22,15,47,20.90
2017,09,22,15,48,20.90
2017,09,22,15,49,20.90
2017,09,22,15,50,20.80
2017,09,22,15,51,20.80
2017,09,22,15,52,20.80
2017,09,22,15,53,20.70
2017,09,22,15,54,20.70
2017,09,22,15,55,20.70
2017,09,22,15,56,20.70
2017,09,22,15,57,20.80
2017,09,22,15,58,20.80
2017,09,22,15,59,20.90
2017,09,22,16,00,20.90
2017,09,22,16,01,20.90
2017,09,22,16,02,21.00
2017,09,22,16,03,21.00
2017,09,22,16,04,21.10
2017,09,22,16,05,21.20
2017,09,22,16,06,21.20
2017,09,22,16,07,21.30
2017,09,22,16,08,21.30
2017,09,22,16,09,21.30
2017,09,22,16,10,21.30
2017,09,22,16,11,21.30
2017,09,22,16,12,21.30
2017,09,22,16,13,21.20
2017,09,22,16,14,21.30
2017,09,22,16,15,21.30
2017,09,22,16,16,21.20
2017,09,22,16,17,21.20
2017,09,22,16,18,21.20
2017,09,22,16,19,21.10
2017,09,22,16,20,21.10
2017,09,22,16,21,21.00
2017,09,22,16,22,20.90
2017,09,22,16,23,20.90
2017,09,22,16,24,20.90
2017,09,22,16,25,20.80
2017,09,22,16,26,20.80
2017,09,22,16,27,20.80
2017,09,22,16,28,20.70
2017,09,22,16,29,20.70
2017,09,22,16,30,20.70
2017,09,22,16,31,20.70
2017,09,22,16,32,20.60
2017,09,22,16,33,20.60
2017,09,22,16,34,20.50
2017,09,22,16,35,20.50
2017,09,22,16,36,20.40
2017,09,22,16,37,20.40
2017,09,22,16,38,20.40
2017,09,22,16,39,20.40
2017,09,22,16,40,20.40
2017,09,22,16,41,20.40
2017,09,22,16,42,20.40
2017,09,22,16,43,20.40
2017,09,22,16,44,20.40
2017,09,22,16,45,20.40
2017,09,22,16,46,20.40
2017,09,22,16,47,20.40
2017,09,22,16,48,20.40
2017,09,22,16,49,20.50
2017,09,22,16,50,20.50
2017,09,22,16,51,20.60
2017,09,22,16,52,20.70
2017,09,22,16,53,20.70
2017,09,22,16,54,20.80
2017,09,22,16,55,20.80
2017,09,22,16,56,20.90
2017,09,22,16,57,20.90
2017,09,22,16,58,21.00
2017,09,22,16,59,21.00
2017,09,22,17,00,21.00
2017,09,22,17,01,21.00
2017,09,22,17,02,21.00
2017,09,22,17,03,21.00
2017,09,22,17,04,20.90
2017,09,22,17,05,20.80
2017,09,22,17,06,20.80
2017,09,22,17,07,20.80
2017,09,22,17,08,20.80
2017,09,22,17,09,20.70
2017,09,22,17,10,20.70
2017,09,22,17,11,20.60
2017,09,22,17,12,20.60
2017,09,22,17,13,20.50
2017,09,22,17,14,20.40
2017,09,22,17,15,20.40
2017,09,22,17,16,20.30
2017,09,22,17,17,20.30
2017,09,22,17,18,20.30
2017,09,22,17,19,20.30
2017,09,22,17,20,20.30
2017,09,22,17,21,20.30
2017,09,22,17,22,20.20
2017,09,22,17,23,20.20
2017,09,22,17,24,20.20
2017,09,22,17,25,20.20
2017,09,22,17,26,20.20
2017,09,22,17,27,20.20
2017,09,22,17,28,20.20
2017,09,22,17,29,20.20
2017,09,22,17,30,20.30
2017,09,22,17,31,20.20
2017,09,22,17,32,20.20
2017,09,22,17,33,20.20
2017,09,22,17,34,20.20
2017,09,22,17,35,20.20
2017,09,22,17,36,20.20
2017,09,22,17,37,20.20
2017,09,22,17,38,20.20
2017,09,22,17,39,20.20
2017,09,22,17,40,20.20
2017,09,22,17,41,20.20
2017,09,22,17,42,20.20
2017,09,22,17,43,20.20
2017,09,22,17,44,20.20
2017,09,22,17,45,20.20
2017,09,22,17,46,20.30
2017,09,22,17,47,20.20
2017,09,22,17,48,20.20
2017,09,22,17,49,20.10
2017,09,22,17,50,20.00
2017,09,22,17,51,19.90
2017,09,22,17,52,19.90
2017,09,22,17,53,19.80
2017,09,22,17,54,19.80
2017,09,22,17,55,19.80
2017,09,22,17,56,19.70
2017,09,22,17,57,19.70
2017,09,22,17,58,19.70
2017,09,22,17,59,19.70
2017,09,22,18,00,19.70
2017,09,22,18,01,19.70
2017,09,22,18,02,19.60
2017,09,22,18,03,19.60
2017,09,22,18,04,19.60
2017,09,22,18,05,19.60
2017,09,22,18,06,19.60
2017,09,22,18,07,19.50
2017,09,22,18,08,19.40
2017,09,22,18,09,19.40
2017,09,22,18,10,19.30
2017,09,22,18,11,19.30
2017,09,22,18,12,19.30
2017,09,22,18,13,19.30
2017,09,22,18,14,19.20
2017,09,22,18,15,19.20
2017,09,22,18,16,19.20
2017,09,22,18,17,19.20
2017,09,22,18,18,19.20
2017,09,22,18,19,19.10
2017,09,22,18,20,19.10
2017,09,22,18,21,19.10
2017,09,22,18,22,19.00
2017,09,22,18,23,19.00
2017,09,22,18,24,19.00
2017,09,22,18,25,18.90
2017,09,22,18,26,18.90
2017,09,22,18,27,18.90
2017,09,22,18,28,18.90
2017,09,22,18,29,18.80
2017,09,22,18,30,18.80
2017,09,22,18,31,18.80
2017,09,22,18,32,18.80
2017,09,22,18,33,18.80
2017,09,22,18,34,18.80
2017,09,22,18,35,18.80
2017,09,22,18,36,18.70
2017,09,22,18,37,18.70
2017,09,22,18,38,18.70
2017,09,22,18,39,18.70
2017,09,22,18,40,18.70
2017,09,22,18,41,18.70
2017,09,22,18,42,18.80
2017,09,22,18,43,18.80
2017,09,22,18,44,18.80
2017,09,22,18,45,18.80
2017,09,22,18,46,18.80
2017,09,22,18,47,18.80
2017,09,22,18,48,18.80
2017,09,22,18,49,18.80
2017,09,22,18,50,18.80
2017,09,22,18,51,18.80
2017,09,22,18,52,18.80
2017,09,22,18,53,18.80
2017,09,22,18,54,18.80
2017,09,22,18,55,18.80
2017,09,22,18,56,18.80
2017,09,22,18,57,18.80
2017,09,22,18,58,18.80
2017,09,22,18,59,18.80
2017,09,22,19,00,18.80
2017,09,22,19,01,18.80
2017,09,22,19,02,18.80
2017,09,22,19,03,18.70
2017,09,22,19,04,18.70
2017,09,22,19,05,18.70